Weather History for Akron, CO

Change the Weather History Date:

Friday, August 17, 2012

  Actual Average Record
Temperature  
Mean Temperature 66 °F 72 °F  
Max Temperature 83 °F 86 °F 98 °F (1939)
Min Temperature 48 °F 59 °F 41 °F (1960)
Degree Days  
Heating Degree Days 0    
Month to date heating degree days 5  
Cooling Degree Days 1    
Month to date cooling degree days 166  
Growing Degree Days 15 (Base 50)    
Moisture  
Dew Point 44 °F    
Average Humidity 49    
Maximum Humidity 71    
Minimum Humidity 26    
Precipitation  
Precipitation 0.00 in 0.07 in 2.49 in (1949)
Month to date precipitation 0.11 1.44  
Year to date precipitation 6.32 12.63  
Sea Level Pressure  
Sea Level Pressure 30.01 in    
Wind  
Wind Speed 13 mph (SSE)    
Max Wind Speed 22 mph    
Max Gust Speed 26 mph    
Visibility 10 miles    
Events      
T = Trace of Precipitation, MM = Missing Value Source: NWS Daily Summary

Daily Weather History Graph

Daily Weather History Graph

Search for Another Location

Airport:

Trip Planner

Search our weather history database for the weather conditions in past years. The results will help you decide how hot, cold, wet, or windy it might be!

Date:

Astronomy

Aug. 17, 2012 Rise Set
Actual Time 6:06 AM MDT 7:46 PM MDT
Civil Twilight 5:37 AM MDT 8:15 PM MDT
Nautical Twilight 5:02 AM MDT 8:49 PM MDT
Astronomical Twilight 4:25 AM MDT 9:26 PM MDT
Moon 6:11 AM MDT (8/17) 7:30 PM MDT (8/17)
Length of Visible Light 14h 37m
Length of Day
13h 39m
New Moon, 0% of the Moon is Illuminated
Aug 17
New Moon
Aug 24
First Quarter
Aug 31
Full
Sep 8
Last Quarter
Sep 15
New

Hourly Weather History & Observations

Time (MDT) Temp. Dew Point Humidity Pressure Visibility Wind Dir Wind Speed Gust Speed Precip Events Conditions
12:53 AM 53.1 °F 41.0 °F 64% 30.13 in 10.0 mi SE 11.5 mph - N/A   Clear
1:53 AM 54.0 °F 39.9 °F 59% 30.10 in 10.0 mi SSE 16.1 mph - N/A   Clear
2:53 AM 54.0 °F 39.0 °F 57% 30.09 in 10.0 mi SSE 13.8 mph - N/A   Clear
3:53 AM 53.1 °F 39.9 °F 61% 30.09 in 10.0 mi SE 11.5 mph - N/A   Clear
4:53 AM 52.0 °F 41.0 °F 66% 30.10 in 10.0 mi SSE 11.5 mph - N/A   Clear
5:53 AM 48.9 °F 39.9 °F 71% 30.12 in 10.0 mi SE 6.9 mph - N/A   Clear
6:53 AM 52.0 °F 41.0 °F 66% 30.11 in 10.0 mi South 9.2 mph - N/A   Clear
9:53 AM 66.9 °F 43.0 °F 42% 30.06 in 10.0 mi South 15.0 mph - N/A   Clear
10:53 AM 70.0 °F 44.1 °F 39% 30.04 in 10.0 mi SSE 13.8 mph - N/A   Clear
11:53 AM 73.9 °F 44.1 °F 34% 30.02 in 10.0 mi SSE 11.5 mph - N/A   Clear
12:53 PM 75.9 °F 45.0 °F 33% 30.00 in 10.0 mi SSE 10.4 mph 21.9 mph N/A   Clear
1:53 PM 79.0 °F 45.0 °F 30% 29.97 in 10.0 mi SSE 13.8 mph 23.0 mph N/A   Clear
2:53 PM 81.0 °F 45.0 °F 28% 29.94 in 10.0 mi SE 17.3 mph 21.9 mph N/A   Clear
3:53 PM 82.9 °F 45.0 °F 26% 29.91 in 10.0 mi SE 15.0 mph - N/A   Clear
4:53 PM 82.9 °F 44.1 °F 25% 29.90 in 10.0 mi SSE 13.8 mph - N/A   Clear
5:53 PM 81.0 °F 45.0 °F 28% 29.91 in 10.0 mi SE 11.5 mph - N/A   Clear
6:53 PM 78.1 °F 46.0 °F 32% 29.91 in 10.0 mi SE 16.1 mph - N/A   Clear
7:53 PM 73.0 °F 46.0 °F 38% 29.92 in 10.0 mi ESE 11.5 mph - N/A   Clear
8:53 PM 68.0 °F 46.0 °F 45% 29.95 in 10.0 mi ESE 9.2 mph - N/A   Clear
9:53 PM 66.9 °F 46.9 °F 49% 29.96 in 10.0 mi SE 11.5 mph - N/A   Clear
10:53 PM 66.9 °F 46.9 °F 49% 29.96 in 10.0 mi SSE 12.7 mph - N/A   Clear
11:53 PM 66.0 °F 46.9 °F 50% 29.94 in 10.0 mi SSE 13.8 mph - N/A   Clear